Home   Weather   Puerto Vallarta   Past weeks

Flag for Mexico Past Weather in Puerto Vallarta, Jalisco, Mexico — Yesterday and Last 2 Weeks

Now
77 °F

Passing clouds.


Feels Like: 78 °F
Forecast: 65 / 81 °F
Wind: 5 mph from West

Location: Puerto Vallarta / Lic

Current Time: Apr 23, 2017 at 10:26:33 pm

Latest Report: Apr 23, 2017 at 9:46 pm


Visibility: 12 mi

Pressure: 29.89 "Hg

Humidity: 83%

Dew Point: 72 °F

Location of Puerto VallartaLocation

Past Weather in Puerto Vallarta — Graph

°F

Puerto Vallarta Temperature Yesterday

Maximum temperature yesterday: 81 °F (at 12:49 pm)
Minimum temperature yesterday: 66 °F (at 7:49 am)
Average temperature yesterday: 75 °F

High & Low Weather Summary for the Past Weeks

 TemperatureHumidityPressure
High82 °F (Apr 13, 11:51 am)100% (Apr 9, 1:48 am)29.96 "Hg (Apr 9, 1:48 am)
Low59 °F (Apr 18, 7:45 am)42% (Apr 19, 12:45 pm)29.39 "Hg (Apr 16, 1:44 am)
Average73 °F81%29.87 "Hg
* Reported Apr 8 8:47 pm — Apr 23 8:46 pm, Puerto Vallarta, Weather by CustomWeather, © 2017

Note: Actual official high and low records may vary slightly from our data, if they occured in-between our weather recording intervals... More about our weather records

Advertising

Puerto Vallarta Weather History for the Previous 24 Hours

Scroll right to see more
 ConditionsComfort  
Time TempWeatherWind HumidityBarometerVisibility
8:46 pm
Sun, Apr 23
77 °FMostly cloudy.5 mph83%29.86 "Hg15 mi
7:46 pm77 °FBroken clouds.6 mph83%29.84 "Hg12 mi
6:47 pm79 °FBroken clouds.9 mph79%29.80 "Hg12 mi
5:44 pm79 °FBroken clouds.16 mph79%29.81 "Hg12 mi
4:47 pm79 °FPartly sunny.14 mph79%29.79 "Hg12 mi
3:47 pm81 °FHigh level clouds.14 mph79%29.80 "Hg12 mi
2:45 pm81 °FScattered clouds.15 mph74%29.81 "Hg10 mi
1:45 pm81 °FSunny.13 mph70%29.82 "Hg12 mi
12:52 pm79 °FPartly sunny.10 mph74%29.83 "Hg12 mi
11:47 am79 °FScattered clouds.7 mph70%29.84 "Hg12 mi
10:46 am79 °FPartly sunny.6 mph70%29.84 "Hg12 mi
9:49 am77 °FSunny.No wind74%29.83 "Hg15 mi
8:52 am72 °FSunny.No wind88%29.83 "Hg12 mi
7:47 am68 °FSunny.5 mph100%29.81 "Hg12 mi
6:50 am70 °FClear.5 mph94%29.79 "Hg12 mi
5:44 am70 °FClear.No wind100%29.80 "Hg12 mi
4:46 am70 °FPassing clouds.3 mph100%29.81 "Hg12 mi
3:49 am70 °FPassing clouds.No wind100%29.81 "Hg12 mi
2:43 am72 °FPassing clouds.2 mph94%29.83 "Hg12 mi
1:49 am72 °FPassing clouds.2 mph94%29.82 "Hg12 mi
12:46 am72 °FClear.No wind100%29.81 "Hg12 mi
11:41 pm
Sat, Apr 22
73 °FClear.No wind94%29.84 "Hg12 mi
10:51 pm75 °FClear.No wind89%29.85 "Hg12 mi
Weather by CustomWeather, © 2017

See weather overviewHow to use our weather pages